PDT,Max TemperatureF,Mean TemperatureF,Min TemperatureF,Max Dew PointF,MeanDew PointF,Min DewpointF,Max Humidity, Mean Humidity, Min Humidity, Max Sea Level PressureIn, Mean Sea Level PressureIn, Min Sea Level PressureIn, Max VisibilityMiles, Mean VisibilityMiles, Min VisibilityMiles, Max Wind SpeedMPH, Mean Wind SpeedMPH, Max Gust SpeedMPH,PrecipitationIn, CloudCover, Events, WindDirDegrees
2013-3-1,55,51,46,50,47,45,100,92,83,30.54,30.43,30.35,10,3,0,12,3,14,0.01,6,Fog,341
2013-3-2,50,48,46,49,47,45,100,97,93,30.34,30.25,30.20,8,3,0,16,5,21,0.01,8,Fog-Rain,332
2013-3-3,53,49,45,47,45,40,100,83,66,30.19,30.15,30.10,10,4,0,16,8,21,0.00,5,Fog,346
2013-3-4,51,45,38,44,40,37,96,81,66,30.14,30.08,29.98,10,10,9,21,10,25,0.00,4,,153
2013-3-5,51,46,40,45,43,37,100,81,61,29.95,29.80,29.63,10,6,2,26,12,37,2.02,8,Rain,130
2013-3-6,50,46,42,45,41,39,92,84,76,30.01,29.84,29.60,10,9,4,26,14,35,0.87,7,Rain,158
2013-3-7,52,45,37,42,40,36,93,78,63,30.01,30.00,29.98,10,10,5,16,6,29,0.07,3,Rain,23
2013-3-8,52,44,35,44,39,32,92,82,71,30.17,30.04,29.99,10,10,5,25,9,36,0.00,0,,4
2013-3-9,56,46,36,46,41,35,92,79,66,30.44,30.36,30.20,10,9,4,14,6,17,0.00,0,,359
2013-3-10,56,46,35,46,41,36,100,82,64,30.45,30.41,30.35,10,4,0,17,4,24,0.00,2,Fog,326
2013-3-11,53,47,41,47,45,39,100,92,83,30.38,30.33,30.26,10,4,0,13,5,16,0.00,7,Fog,254
2013-3-12,52,49,46,48,46,44,100,93,86,30.27,30.25,30.22,10,4,1,12,4,15,0.00,8,,331
2013-3-13,51,48,44,48,45,43,100,93,86,30.25,30.21,30.17,10,2,0,9,3,12,0.00,8,Fog,326
2013-3-14,58,51,44,47,45,43,100,83,66,30.28,30.20,30.14,10,5,0,13,4,17,0.00,6,Fog,191
2013-3-15,54,48,41,50,46,39,100,89,77,30.27,30.25,30.23,10,3,0,12,4,15,0.00,4,Fog,324
2013-3-16,54,50,45,48,46,44,100,89,77,30.28,30.25,30.19,10,6,1,14,5,17,0.09,8,Rain,295
2013-3-17,53,46,39,43,40,37,89,76,63,30.32,30.28,30.22,10,10,10,23,11,32,0.00,1,,339
2013-3-18,52,44,35,43,39,34,100,80,59,30.24,30.18,30.12,10,10,10,13,4,18,0.00,1,,188
2013-3-19,54,48,41,50,45,40,93,81,68,30.12,30.00,29.86,10,8,2,30,11,40,0.51,8,Rain,144
2013-3-20,53,49,44,50,47,38,100,86,71,30.27,29.97,29.85,10,4,1,29,13,37,0.46,8,Rain,198
2013-3-21,51,43,34,40,37,32,100,81,61,30.37,30.32,30.28,10,9,3,26,13,37,0.00,3,,347
2013-3-22,52,44,36,38,34,28,76,68,59,30.36,30.33,30.30,10,10,8,29,13,37,0.00,0,,344
2013-3-23,53,45,36,41,36,29,76,66,56,30.30,30.25,30.19,10,10,7,20,9,26,0.00,1,,347
2013-3-24,52,45,38,43,40,36,92,80,68,30.21,30.15,30.07,10,10,9,12,5,15,0.00,0,,334
2013-3-25,52,47,41,45,43,39,96,87,77,30.06,30.03,30.02,10,10,9,14,8,16,0.00,6,,154
2013-3-26,55,49,42,46,43,40,93,80,66,30.05,30.01,29.97,10,10,5,9,3,13,0.00,7,Rain,301
2013-3-27,58,53,48,52,48,46,96,88,80,30.01,29.97,29.93,10,8,2,14,6,18,0.18,8,Rain,160
2013-3-28,57,54,51,54,51,48,100,93,86,30.14,30.06,30.00,10,7,1,17,5,45,0.09,8,Rain,183
2013-3-29,65,58,50,52,50,46,96,78,60,30.14,30.11,30.04,10,8,1,14,5,18,0.00,3,,349
2013-3-30,63,56,49,52,49,46,89,78,67,30.09,30.05,30.01,10,9,2,18,8,22,0.00,3,Rain,156
2013-3-31,56,54,51,54,51,50,100,97,93,30.09,30.05,29.98,10,6,1,16,5,18,0.33,8,Rain,191